Baton Rouge, LA

4:19 PM CST on November 11, 2019 (GMT -0600)
Baton Rouge Metro-Ryan

Weather History for KBTR - September, 2019

Change the Weather History Date:

Tuesday, September 17, 2019

  Actual Average Record
Temperature  
Mean Temperature 84 °F 78 °F  
Max Temperature 93 °F 89 °F 98 °F (1927)
Min Temperature 74 °F 68 °F 55 °F (1961)
Degree Days  
Heating Degree Days 0 0  
Month to date heating degree days 0 0  
Since 1 July heating degree days 0 0  
Cooling Degree Days 19 13  
Month to date cooling degree days 334 261  
Year to date cooling degree days 2672 2422  
Growing Degree Days 32 (Base 50)    
Moisture  
Dew Point 74 °F    
Average Humidity 73    
Maximum Humidity 94    
Minimum Humidity 52    
Precipitation  
Precipitation 0.99 in 0.14 in 2.82 in (1942)
Month to date precipitation 1.63 2.70  
Year to date precipitation 50.84 44.41  
Snow  
Snow 0.00 in - - ()
Month to date snowfall 0.0  
Since 1 July snowfall 0.0  
Since 1 September snowfall 0.0  
Snow Depth 0.00 in    
Sea Level Pressure  
Sea Level Pressure 29.98 in    
Wind  
Wind Speed 4 mph (ESE)    
Max Wind Speed 46 mph    
Max Gust Speed 65 mph    
Visibility 8 miles    
Events Fog , Rain , Thunderstorm    
T = Trace of Precipitation, MM = Missing Value Source: NWS Daily Summary

Daily Weather History Graph

Daily Weather History Graph

Search for Another Location

Airport or City:

Astronomy

Sep. 17, 2019 Rise Set
Actual Time 6:50 AM CDT 7:07 PM CDT
Civil Twilight 6:25 AM CDT 7:31 PM CDT
Nautical Twilight 5:57 AM CDT 7:59 PM CDT
Astronomical Twilight 5:29 AM CDT 8:28 PM CDT
Moon 9:23 PM CDT (9/17) 9:44 AM CDT (9/17)
Length of Visible Light 13h 05m
Length of Day
12h 17m
Waning Gibbous, 89% of the Moon is Illuminated
Sep 17
Waning Gibbous
Sep 21
Last Quarter
Sep 28
New
Oct 5
First Quarter
Oct 13
Full

Hourly Weather History & Observations

Time (CDT) Temp. Heat Index Dew Point Humidity Pressure Visibility Wind Dir Wind Speed Gust Speed Precip Events Conditions
12:53 AM 75.0 °F - 73.0 °F 94% 29.97 in 10.0 mi East 4.6 mph - N/A   Clear
1:53 AM 75.0 °F - 73.0 °F 94% 29.98 in 10.0 mi ENE 3.5 mph - N/A   Clear
2:53 AM 75.0 °F - 73.0 °F 94% 29.96 in 10.0 mi ENE 3.5 mph - N/A   Clear
3:53 AM 75.9 °F - 73.0 °F 91% 29.96 in 10.0 mi East 3.5 mph - N/A   Clear
4:53 AM 75.0 °F - 73.0 °F 94% 29.96 in 10.0 mi ENE 3.5 mph - N/A   Clear
5:53 AM 75.0 °F - 73.0 °F 94% 29.98 in 10.0 mi ENE 3.5 mph - N/A   Clear
6:53 AM 75.0 °F - 73.0 °F 94% 30.00 in 9.0 mi Calm Calm - N/A   Clear
7:53 AM 75.9 °F - 73.9 °F 94% 30.01 in 9.0 mi ENE 3.5 mph - N/A   Clear
8:15 AM 78.1 °F - 75.0 °F 90% 30.02 in 10.0 mi ENE 6.9 mph - N/A   Partly Cloudy
9:46 AM 82.0 °F 89.4 °F 75.9 °F 82% 30.04 in 10.0 mi East 6.9 mph - N/A   Mostly Cloudy
9:53 AM 82.0 °F 89.4 °F 75.9 °F 82% 30.04 in 10.0 mi East 9.2 mph - N/A   Mostly Cloudy
10:53 AM 84.9 °F 94.1 °F 75.9 °F 74% 30.04 in 10.0 mi East 10.4 mph - N/A   Mostly Cloudy
10:56 AM 84.9 °F 94.1 °F 75.9 °F 74% 30.04 in 10.0 mi East 9.2 mph - N/A   Scattered Clouds
11:53 AM 88.0 °F 97.5 °F 75.0 °F 65% 30.03 in 10.0 mi ESE 6.9 mph - N/A   Scattered Clouds
12:53 PM 90.0 °F 99.0 °F 73.9 °F 59% 30.01 in 10.0 mi SE 8.1 mph - N/A   Partly Cloudy
1:53 PM 91.9 °F 101.3 °F 73.9 °F 55% 29.99 in 10.0 mi East 8.1 mph - N/A   Clear
2:53 PM 91.0 °F 98.2 °F 72.0 °F 53% 29.96 in 10.0 mi SE 8.1 mph - N/A   Scattered Clouds
3:09 PM 82.9 °F 88.8 °F 73.0 °F 72% 29.96 in 9.0 mi South 19.6 mph 28.8 mph 0.00 in Rain , Thunderstorm Light Thunderstorms and Rain
3:17 PM 80.1 °F 84.5 °F 73.9 °F 81% 29.97 in 0.5 mi SSW 13.8 mph - 0.00 in Rain , Thunderstorm Heavy Thunderstorms and Rain
3:39 PM 73.9 °F - 71.1 °F 91% 29.95 in 0.5 mi East 29.9 mph 65.6 mph 0.31 in Fog , Rain , Thunderstorm Heavy Thunderstorms and Rain
3:43 PM 75.0 °F - 70.0 °F 84% 29.97 in 0.5 mi ENE 13.8 mph 65.6 mph 0.67 in Rain , Thunderstorm Heavy Thunderstorms and Rain
3:53 PM 75.9 °F - 72.0 °F 87% 29.97 in 0.5 mi Calm Calm - 0.94 in Fog , Rain , Thunderstorm Heavy Thunderstorms and Rain
3:55 PM 75.9 °F - 72.0 °F 87% 29.97 in 5.0 mi Calm Calm - 0.01 in Rain , Thunderstorm Heavy Thunderstorms and Rain
4:08 PM 75.0 °F - 71.1 °F 87% 29.97 in 5.0 mi Calm Calm - 0.04 in Rain , Thunderstorm Rain
4:25 PM 78.1 °F - 73.0 °F 84% 29.96 in 5.0 mi South 4.6 mph - 0.05 in Rain Rain
4:53 PM 80.1 °F 85.1 °F 75.0 °F 85% 29.96 in 5.0 mi South 6.9 mph - 0.05 in Rain Rain
5:53 PM 80.1 °F 85.1 °F 75.0 °F 85% 29.96 in 10.0 mi East 4.6 mph - 0.00 in   Clear
6:53 PM 80.1 °F 84.5 °F 73.9 °F 81% 29.96 in 10.0 mi East 5.8 mph - N/A   Clear
7:53 PM 79.0 °F - 73.9 °F 84% 29.98 in 10.0 mi ESE 5.8 mph - N/A   Clear
8:53 PM 78.1 °F - 75.0 °F 90% 29.97 in 10.0 mi Calm Calm - N/A   Clear
9:53 PM 77.0 °F - 73.9 °F 90% 29.97 in 10.0 mi Calm Calm - N/A   Clear
10:53 PM 77.0 °F - 72.0 °F 84% 29.98 in 10.0 mi South 6.9 mph - N/A   Clear